Location: Songkhla
(7.2000°N, 100.6000°E)
Time: 13:53:03
(UTC+07:00)

Daily predictions for brighter satellites

Satellite Brightness Start Highest point End
(mag) Time Altitude Azimuth Time Altitude Azimuth Time Altitude Azimuth
ARIANE 5 DEB (SYLDA) 4.5 18:35:59 10° WSW 18:40:04 46° SSE 18:57:08 10° E
CZ-4 R/B 1.4 18:42:12 10° SSE 18:46:16 73° ENE 18:50:24 10° N
H-2A R/B 3.0 18:44:04 10° S 18:47:50 76° W 18:51:39 10° NNW
Aureole 2 Rocket 2.6 18:48:23 10° SSW 18:52:08 90° ESE 18:55:46 10° NNE
Cosmos 1025 Rocket 3.2 18:49:02 10° N 18:53:16 50° E 18:57:31 10° SSE
ARIANE 5 DEB (SYLDA 5A) 4.0 18:47:13 10° WSW 18:53:17 25° SSW 18:55:42 10° SE
YAOGAN 1 2.6 18:50:14 10° SSE 18:54:29 62° ENE 18:58:45 10° N
Ariane H10+ 3.2 18:46:51 10° W 18:54:53 38° SSW 18:57:27 10° SE
GPS 2-15 Rocket1 4.4 18:51:05 10° W 18:55:32 35° NNW 19:00:02 10° NE
Lacrosse 5 rocket 2.1 18:54:16 10° N 18:58:12 36° ENE 19:02:18 10° SE
ASTRO E2 3.0 18:55:38 10° SW 18:59:27 48° SSE 19:03:06 11° ENE
Cosmos 1340 3.6 19:00:10 10° SSE 19:03:19 25° E 19:06:27 10° NE
Cosmos 1339 Rocket 4.5 19:00:12 10° S 19:06:29 80° E 19:12:50 10° N
Cosmos 489 Rocket 4.4 19:01:06 10° N 19:07:20 84° ENE 19:13:36 10° SSE
Ariane Rocket 3.0 19:02:41 10° SSE 19:07:41 57° ENE 19:12:39 10° N
H-10 deb 4.0 19:06:06 10° SW 19:07:43 12° SSW 19:08:57 10° S
Cosmos 2360 4.4 19:07:10 10° S 19:12:36 47° ESE 19:18:01 10° NNE
Cosmos 2369 4.3 19:08:28 10° SSW 19:14:01 61° WNW 19:19:36 10° N
Maqsat-B 3.9 18:57:25 10° W 19:15:22 86° N 19:18:46 19° E
Cosmos 1697 Rocket 2.9 19:13:21 10° SSW 19:18:59 75° WNW 19:24:38 10° N
CZ-3B R/B 4.0 19:14:24 10° S 19:19:37 25° SE 19:25:40 18° E
ATLAS 3B R/B 4.0 19:16:36 10° SSE 19:21:18 18° ESE 19:22:09 18° ESE
Cosmos 1110 Rocket 4.1 19:19:44 10° NNW 19:25:00 82° WSW 19:30:13 10° S
Cosmos 1190 Rocket 4.3 19:23:15 10° S 19:28:12 43° E 19:33:10 10° NNE
ARIANE 5 R/B 2.4 19:26:41 10° WSW 19:28:28 34° S 19:29:06 29° SE
Meteor 1-15 Rocket 4.2 19:23:42 10° S 19:29:28 89° E 19:35:08 10° N
Cosmos 1727 Rocket 4.1 19:25:35 10° S 19:31:48 82° W 19:38:03 10° N
Cosmos 1378 2.9 19:28:54 10° N 19:32:35 71° E 19:36:16 10° S
Cosmos 1461 4.1 19:32:10 10° SW 19:36:40 49° WNW 19:41:03 10° N
Alouette 2 Rocket 4.0 19:34:08 10° SSE 19:37:44 39° E 19:42:29 10° NNE
YAOGAN 6 2.7 19:36:07 10° S 19:39:48 78° W 19:43:29 10° NNW
GPS 2-14 Rocket1 4.3 19:36:47 10° WNW 19:40:17 28° NNW 19:42:04 21° NNE
Fermi 4.4 19:38:49 10° NW 19:42:34 37° NNE 19:42:55 36° NE
Ariane H10 3.9 19:17:25 10° W 19:42:48 67° S 19:45:12 34° ESE
Cosmos 407 Rocket 3.4 19:38:12 10° S 19:43:32 74° ESE 19:48:49 10° NNE
Cosmos 1605 Rocket 3.9 19:39:17 10° N 19:45:32 78° E 19:51:52 10° S
USA 267 4.2 19:40:15 10° NNE 19:46:23 45° NW 19:52:32 10° WSW
GP-B 3.2 19:42:49 10° S 19:47:15 76° W 19:51:40 10° N
BREEZE-M DEB (TANK) 3.4 19:51:59 10° SW 19:53:52 35° W 19:53:52 35° W
USA 238 DEB 3.5 19:49:01 10° SSW 19:55:45 87° ESE 20:02:30 10° NNE
USA 238 3.5 19:49:08 10° SSW 19:55:52 86° ESE 20:02:36 10° NNE
Ariane H10+ 1.5 19:53:44 10° W 19:56:41 83° S 19:57:25 62° ESE
SPOT 3 Rocket 3.5 19:55:54 51° ESE 19:56:41 57° ENE 20:01:46 10° N
Hubble Space Telescope 1.7 19:53:41 10° W 19:57:35 40° NNW 19:58:20 36° N
Cosmos 2297 Rocket 3.9 19:53:57 10° NNE 19:55:40 18° NNE 19:55:40 18° NNE
Cosmos 2219 3.0 19:55:55 10° N 20:01:31 76° ENE 20:03:26 43° SSE
ARIANE 5 R/B 3.5 19:58:39 10° WSW 20:01:40 20° SSW 20:01:40 20° SSW
FALCON 9 R/B 4.3 19:27:40 10° WNW 20:02:51 32° NNW 20:08:11 19° NE
Cosmos 614 Rocket 3.8 19:58:02 10° SSW 20:03:09 89° ESE 20:06:28 23° NNE
Okean 1-7 Rocket 4.0 20:03:30 10° NNW 20:07:59 64° W 20:11:33 16° S
Cosmos 676 Rocket 4.4 20:06:05 10° S 20:09:59 49° S 20:09:59 49° S
Cosmos 1980 Rocket 3.3 20:06:34 10° SW 20:11:50 42° WNW 20:17:09 10° N
Cosmos 1140 Rocket 3.5 20:10:50 10° SSW 20:15:26 70° SSW 20:15:26 70° SSW
Ariane H10+ 4.1 20:16:32 10° WSW 20:19:46 21° SSW 20:19:46 21° SSW
BLOCK-DM UPPERSTAGE 4.4 20:19:55 10° WSW 20:23:03 41° SSW 20:23:03 41° SSW
SWIFT 4.1 20:20:21 10° WNW 20:22:28 28° NW 20:22:28 28° NW
Lacrosse 5 rocket 4.4 20:35:27 10° W 20:37:12 12° WSW 20:38:58 10° SW
NOSS 3-2 (A) 4.4 20:45:11 10° SW 20:49:34 38° W 20:49:34 38° W
Cosmos 2227 Rocket 4.3 20:52:14 10° NNW 20:53:39 18° NNW 20:53:39 18° NNW
ATLAS 3B R/B 3.9 21:04:49 10° SW 21:09:32 38° WSW 21:09:32 38° WSW
